{"data":{"norad_id":65200,"intl_designator":"2025-176C","name":"STARLINK-34865","alt_names":[],"object_type":"PAYLOAD","status":"ACTIVE","operator":null,"country":"US","launch_date":"2025-08-14","launch_site_code":"AFETR","launch_vehicle":null,"mission":null,"orbit_class":"UNKNOWN","rcs_meters":null,"size_class":null,"mass_kg":null,"dimensions":null,"purposes":["comms"],"wikipedia_slug":null,"has_3d_model":false,"image_url":null,"decayed_at":null,"tle_current":{"epoch":"2026-05-25T00:44:25.312128Z","epoch_age_seconds":82850,"freshness":"FRESH","line1":"1 65200U 25176C   26145.03084852  .00033473  00000+0  99680-3 0  9996","line2":"2 65200  53.1586 157.7832 0001539  81.6340 278.4837 15.34418330 44814","mean_motion":15.3441833,"eccentricity":0.0001539,"inclination_deg":53.1586,"raan_deg":157.7832,"arg_perigee_deg":81.634,"mean_anomaly_deg":278.4837,"bstar":0.0009968,"rev_number":4481,"period_min":93.846636985886,"perigee_km":461.5959631981,"apogee_km":463.70155705507,"semimajor_km":6840.7857601266,"source":"CELESTRAK","updated_at":"2026-05-25T13:38:20.717787Z"}}}